Regional Weather Roundup
Issued by NWS

Home | Current Version | Previous Version | Text Only | Print | Product List | Glossary Off
Versions: 1 2 3 4 5 6 7 8 9 10 11 12 13 14 15 16 17 18 19 20 21 22 23 24 25 26 27 28 29 30 31 32 33 34 35 36 37 38 39 40 41 42 43 44 45 46 47 48 49 50

000
ASUS43 KIND 100059
RWRIN

WEATHER ROUNDUP FOR INDIANA
NATIONAL WEATHER SERVICE INDIANAPOLIS IN
800 PM EST FRI DEC 09 2016

NOTE: "FAIR" INDICATES FEW OR NO CLOUDS BELOW 12,000 FEET WITH NO
SIGNIFICANT WEATHER AND/OR OBSTRUCTIONS TO VISIBILITY.

* - STATION DOES NOT REPORT WEATHER SUCH AS PRECIPITATION OR FOG.

+ - STATION NOT QUALITY CONTROLLED BY THE NATIONAL WEATHER SERVICE.
    USE DATA WITH CAUTION...ESPECIALLY DEWPOINT AND RELATIVE
    HUMIDITY OBSERVATIONS.

INZ001>003-010>013-019-020-100200-
NORTHWEST INDIANA

CITY           SKY/WX    TMP DP  RH WIND       PRES   REMARKS
GARY /AIRPORT/ PTCLDY    23  14  68 W10       30.54R WCI  12

$$

LMZ046-743>745-100200-
SOUTHERN LAKE MICHIGAN

STATION/POSITION TIME  TEMP    WIND        PRES    WAVE
                       AIR SEA DIR/SP/G            HT
                 (UTC) (F)     (DEG/KT/KT) (MB)    (FT)

$$

INZ004-005-014>016-021>024-100200-
NORTH CENTRAL INDIANA

CITY           SKY/WX    TMP DP  RH WIND       PRES   REMARKS
ELKHART        FLURRIES  25  16  68 W10       30.48R WCI  15
GOSHEN         CLOUDY    24  13  62 W14       30.48R WCI  12
SOUTH BEND     FLURRIES  22  15  75 SW15      30.49R WCI   9

$$

INZ006>009-017-018-025>027-100200-
NORTHEAST INDIANA

CITY           SKY/WX    TMP DP  RH WIND       PRES   REMARKS
ANGOLA *+      CLOUDY    23  19  86 W8        30.44R WCI  14
FORT WAYNE     CLOUDY    25  14  63 W16       30.50R WCI  12
KENDALLVILLE + CLOUDY    24  17  74 W12       30.46R WCI  13

$$

INZ028-029-035-036-043>045-051>053-100200-
WEST CENTRAL INDIANA

CITY           SKY/WX    TMP DP  RH WIND       PRES   REMARKS
CRAWFORDSVL +  CLOUDY    22  17  79 W7        30.53F WCI  14
GREENCASTLE +  CLOUDY    25  18  74 W3        30.54F
LAFAYETTE      CLOUDY    24  16  71 NW6       30.54F WCI  17
TERRE HAUTE    CLOUDY    24  17  74 W3        30.57S

$$

INZ030>032-037>040-046>048-054>057-064-065-100200-
CENTRAL INDIANA

CITY           SKY/WX    TMP DP  RH WIND       PRES   REMARKS
COLUMBUS       CLOUDY    25  18  74 W6        30.56F WCI  18
GREENWOOD *+   CLOUDY    26  17  71 W7        30.55S WCI  18
INDIANAPOLIS   FLURRIES  25  15  66 W10       30.53S WCI  15
-EAGLE CREEK   CLOUDY    25  15  66 W5        30.53S WCI  19
KOKOMO +       FLURRIES  24  18  77 W12       30.53R WCI  13
SHELBYVILLE    CLOUDY    26  16  65 W10       30.54R WCI  16

$$

INZ033-034-041-042-049-050-058-059-100200-
EAST CENTRAL INDIANA

CITY           SKY/WX    TMP DP  RH WIND       PRES   REMARKS
MUNCIE         FLURRIES  25  19  78 W8        30.52R WCI  16

$$

INZ060-061-067>069-081>083-085>088-100200-
SOUTHWEST INDIANA

CITY           SKY/WX    TMP DP  RH WIND       PRES   REMARKS
EVANSVILLE     CLEAR     25  15  66 CALM      30.58S
HUNTINGBURG *+ CLOUDY    26  16  65 N6        30.57F WCI  19

$$

INZ062-063-066-070>080-084-089>092-100200-
SOUTH CENTRAL AND SOUTHEAST INDIANA

CITY           SKY/WX    TMP DP  RH WIND       PRES   REMARKS
BLOOMINGTON    MOCLDY    23  15  71 CALM      30.54F
MADISON *+     CLOUDY    27  14  59 W3        30.58S
SEYMOUR +      CLOUDY    27  16  63 CALM      30.57F

$$





USA.gov is the U.S. government's official web portal to all federal, state and local government web resources and services.